Home   Weather   West Fairfield   Past weeks
Flag for USA

Past Weather in West Fairfield, Alabama, USA — Yesterday and Last 2 Weeks

Now
56 °F

Clear.


Feels Like: 56 °F
Forecast: 75 / 48 °F
Wind: No wind

Location: Birmingham International Airport

Current Time: Apr 2, 2020 at 9:41:41 pm

Latest Report: Apr 2, 2020 at 8:53 pm


Visibility: 10 mi

Pressure: 30.06 "Hg

Humidity: 62%

Dew Point: 43 °F

Location of West FairfieldLocation

Past Weather in West Fairfield — Graph

°F

West Fairfield Temperature Yesterday

Maximum temperature yesterday: 66 °F (at 2:53 pm)
Minimum temperature yesterday: 42 °F (at 4:53 am)
Average temperature yesterday: 53 °F

High & Low Weather Summary for the Past Weeks

 TemperatureHumidityPressure
High84 °F (Mar 27, 3:53 pm)97% (Mar 23, 6:40 am)30.38 "Hg (Mar 23, 6:40 am)
Low41 °F (Apr 2, 6:53 am)30% (Mar 30, 12:53 pm)29.71 "Hg (Mar 31, 7:57 am)
Average65 °F72%30.07 "Hg
* Reported Mar 18 7:53 pm — Apr 2 7:53 pm, West Fairfield. Weather by CustomWeather, © 2020

Note: Actual official high and low records may vary slightly from our data, if they occured in-between our weather recording intervals... More about our weather records

West Fairfield Weather History for the Previous 24 Hours

Scroll right to see more
 ConditionsComfort  
Time TempWeatherWind HumidityBarometerVisibility
7:53 pm
Thu, Apr 2
61 °FPassing clouds.3 mph46%30.05 "Hg10 mi
5:53 pm70 °FPassing clouds.7 mph34%30.02 "Hg10 mi
4:53 pm71 °FPassing clouds.6 mph31%30.02 "Hg10 mi
3:53 pm72 °FScattered clouds.6 mph33%30.03 "Hg10 mi
2:53 pm70 °FScattered clouds.No wind32%30.05 "Hg10 mi
1:53 pm69 °FScattered clouds.6 mph35%30.08 "Hg10 mi
12:53 pm65 °FScattered clouds.3 mph40%30.11 "Hg10 mi
11:53 am63 °FPassing clouds.8 mph41%30.14 "Hg10 mi
10:53 am59 °FPassing clouds.5 mph46%30.14 "Hg10 mi
9:53 am56 °FPassing clouds.8 mph49%30.17 "Hg10 mi
8:53 am54 °FPassing clouds.7 mph53%30.15 "Hg10 mi
7:53 am50 °FPassing clouds.No wind63%30.17 "Hg10 mi
6:53 am41 °FScattered clouds.5 mph80%30.14 "Hg10 mi
5:53 am43 °FPassing clouds.3 mph74%30.11 "Hg10 mi
4:53 am47 °FPassing clouds.5 mph64%30.09 "Hg10 mi
3:53 am46 °FPassing clouds.5 mph71%30.09 "Hg10 mi
2:53 am46 °FClear.No wind71%30.09 "Hg10 mi
1:53 am50 °FClear.5 mph59%30.08 "Hg10 mi
12:53 am51 °FClear.12 mph59%30.07 "Hg10 mi
11:53 pm
Wed, Apr 1
53 °FClear.8 mph55%30.06 "Hg10 mi
10:53 pm53 °FClear.7 mph56%30.06 "Hg10 mi
9:53 pm52 °FClear.3 mph61%30.07 "Hg10 mi
Weather by CustomWeather, © 2020

See weather overview

Advertising